Weather History for KFXY - May, 2014

Change the Weather History Date:

Saturday, May 3, 2014

  Actual Average Record
Temperature  
Mean Temperature 48 °F -  
Max Temperature 62 °F 65 °F 82 °F (2015)
Min Temperature 35 °F 41 °F 33 °F (2013)
Degree Days  
Heating Degree Days 16    
Moisture  
Dew Point 36 °F    
Average Humidity 63    
Maximum Humidity 93    
Minimum Humidity 34    
Precipitation  
Precipitation 0.00 in - - ()
Sea Level Pressure  
Sea Level Pressure 29.84 in    
Wind  
Wind Speed 8 mph (WNW)    
Max Wind Speed 21 mph    
Max Gust Speed 28 mph    
Visibility 10 miles    
Events      
Averages and records for this station are not official NWS values.
T = Trace of Precipitation, MM = Missing Value Source: NWS Daily Summary

Daily Weather History Graph

Daily Weather History Graph

Search for Another Location

Airport or City:

Trip Planner

Search our weather history database for the weather conditions in past years. The results will help you decide how hot, cold, wet, or windy it might be!

Date:

Astronomy

May. 03, 2014 Rise Set
Actual Time 6:05 AM CDT 8:18 PM CDT
Civil Twilight 5:33 AM CDT 8:49 PM CDT
Nautical Twilight 4:54 AM CDT 9:28 PM CDT
Astronomical Twilight 4:12 AM CDT 10:12 PM CDT
Moon 9:33 AM CDT No Moon Set
Length of Visible Light 15h 16m
Length of Day
14h 13m
Waxing Crescent, 20% of the Moon is Illuminated
May 3
Waxing Crescent
May 6
First Quarter
May 14
Full
May 21
Last Quarter
May 28
New

Hourly Weather History & Observations

Time (CDT) Temp. Windchill Dew Point Humidity Pressure Visibility Wind Dir Wind Speed Gust Speed Precip Events Conditions
12:15 AM 42.8 °F 39.3 °F 35.6 °F 76% 29.75 in 10.0 mi West 5.8 mph - N/A   Clear
12:35 AM 42.8 °F 39.3 °F 35.6 °F 76% 29.76 in 10.0 mi WNW 5.8 mph - N/A   Clear
12:55 AM 42.8 °F 39.3 °F 35.6 °F 76% 29.76 in 10.0 mi West 5.8 mph - N/A   Clear
1:15 AM 41.0 °F 38.0 °F 35.6 °F 81% 29.77 in 10.0 mi West 4.6 mph - N/A   Clear
1:35 AM 39.2 °F 35.0 °F 35.6 °F 87% 29.77 in 10.0 mi West 5.8 mph - N/A   Clear
1:55 AM 41.0 °F 36.4 °F 35.6 °F 81% 29.77 in 10.0 mi West 6.9 mph - N/A   Clear
2:15 AM 39.2 °F 35.9 °F 35.6 °F 87% 29.77 in 10.0 mi West 4.6 mph - N/A   Clear
2:35 AM 39.2 °F 35.9 °F 35.6 °F 87% 29.78 in 10.0 mi West 4.6 mph - N/A   Clear
2:55 AM 39.2 °F 35.9 °F 35.6 °F 87% 29.78 in 10.0 mi West 4.6 mph - N/A   Clear
3:15 AM 39.2 °F 35.0 °F 35.6 °F 87% 29.78 in 10.0 mi West 5.8 mph - N/A   Clear
3:35 AM 39.2 °F 35.9 °F 35.6 °F 87% 29.79 in 10.0 mi West 4.6 mph - N/A   Clear
3:55 AM 37.4 °F 33.8 °F 35.6 °F 93% 29.79 in 10.0 mi West 4.6 mph - N/A   Clear
4:15 AM 37.4 °F 32.8 °F 33.8 °F 87% 29.80 in 10.0 mi West 5.8 mph - N/A   Clear
4:35 AM 37.4 °F 34.9 °F 33.8 °F 87% 29.80 in 10.0 mi West 3.5 mph - N/A   Clear
4:55 AM 35.6 °F - 33.8 °F 93% 29.80 in 10.0 mi Calm Calm - N/A   Clear
5:15 AM 35.6 °F - 33.8 °F 93% 29.80 in 10.0 mi Calm Calm - N/A   Clear
5:35 AM 35.6 °F - 33.8 °F 93% 29.80 in 10.0 mi Calm Calm - N/A   Clear
5:55 AM 35.6 °F - 33.8 °F 93% 29.81 in 10.0 mi Calm Calm - N/A   Clear
6:15 AM 35.6 °F - 33.8 °F 93% 29.81 in 10.0 mi Calm Calm - N/A   Clear
6:35 AM 35.6 °F - 33.8 °F 93% 29.81 in 10.0 mi Calm Calm - N/A   Clear
6:55 AM 37.4 °F 32.8 °F 33.8 °F 87% 29.82 in 10.0 mi West 5.8 mph - N/A   Clear
7:15 AM 39.2 °F 35.9 °F 35.6 °F 87% 29.82 in 10.0 mi West 4.6 mph - N/A   Clear
7:35 AM 41.0 °F 37.1 °F 35.6 °F 81% 29.84 in 10.0 mi West 5.8 mph - N/A   Clear
7:55 AM 42.8 °F 39.3 °F 37.4 °F 81% 29.85 in 10.0 mi West 5.8 mph - N/A   Mostly Cloudy
8:15 AM 46.4 °F 43.5 °F 37.4 °F 71% 29.85 in 10.0 mi West 5.8 mph - N/A   Overcast
8:35 AM 46.4 °F 43.5 °F 37.4 °F 71% 29.85 in 10.0 mi WNW 5.8 mph - N/A   Mostly Cloudy
8:55 AM 48.2 °F - 37.4 °F 66% 29.85 in 10.0 mi WNW 8.1 mph - N/A   Overcast
9:15 AM 50.0 °F - 37.4 °F 62% 29.85 in 10.0 mi NW 8.1 mph - N/A   Mostly Cloudy
9:35 AM 51.8 °F - 39.2 °F 62% 29.85 in 10.0 mi WNW 11.5 mph - N/A   Clear
9:55 AM 51.8 °F - 39.2 °F 62% 29.85 in 10.0 mi NW 10.4 mph - N/A   Clear
10:15 AM 51.8 °F - 41.0 °F 67% 29.85 in 10.0 mi WNW 9.2 mph - N/A   Clear
10:35 AM 53.6 °F - 39.2 °F 58% 29.86 in 10.0 mi NW 11.5 mph - N/A   Clear
10:55 AM 53.6 °F - 39.2 °F 58% 29.86 in 10.0 mi NW 15.0 mph 19.6 mph N/A   Scattered Clouds
11:15 AM 55.4 °F - 39.2 °F 54% 29.87 in 10.0 mi NW 11.5 mph 17.3 mph N/A   Scattered Clouds
11:35 AM 55.4 °F - 37.4 °F 51% 29.87 in 10.0 mi WNW 15.0 mph - N/A   Scattered Clouds
11:55 AM 55.4 °F - 39.2 °F 54% 29.87 in 10.0 mi WNW 12.7 mph 17.3 mph N/A   Mostly Cloudy
12:15 PM 57.2 °F - 39.2 °F 51% 29.87 in 10.0 mi WNW 10.4 mph 17.3 mph N/A   Scattered Clouds
12:35 PM 59.0 °F - 41.0 °F 51% 29.87 in 10.0 mi WNW 11.5 mph 21.9 mph N/A   Clear
12:55 PM 60.8 °F - 39.2 °F 45% 29.87 in 10.0 mi West 18.4 mph 25.3 mph N/A   Clear
1:15 PM 60.8 °F - 37.4 °F 42% 29.87 in 10.0 mi NW 18.4 mph 24.2 mph N/A   Clear
1:35 PM 60.8 °F - 35.6 °F 39% 29.87 in 10.0 mi NW 16.1 mph 23.0 mph N/A   Scattered Clouds
1:55 PM 60.8 °F - 35.6 °F 39% 29.86 in 10.0 mi WNW 15.0 mph 24.2 mph N/A   Scattered Clouds
2:15 PM 60.8 °F - 35.6 °F 39% 29.87 in 10.0 mi WNW 19.6 mph 26.5 mph N/A   Clear
2:35 PM 60.8 °F - 35.6 °F 39% 29.87 in 10.0 mi WNW 18.4 mph 24.2 mph N/A   Scattered Clouds
2:55 PM 62.6 °F - 35.6 °F 37% 29.88 in 10.0 mi NW 15.0 mph 25.3 mph N/A   Scattered Clouds
3:15 PM 62.6 °F - 35.6 °F 37% 29.88 in 10.0 mi WNW 13.8 mph 27.6 mph N/A   Mostly Cloudy
3:35 PM 62.6 °F - 35.6 °F 37% 29.87 in 10.0 mi NW 18.4 mph 24.2 mph N/A   Mostly Cloudy
3:55 PM 62.6 °F - 35.6 °F 37% 29.86 in 10.0 mi NW 20.7 mph 25.3 mph N/A   Scattered Clouds
4:15 PM 62.6 °F - 35.6 °F 37% 29.87 in 10.0 mi NW 13.8 mph 20.7 mph N/A   Scattered Clouds
4:35 PM 60.8 °F - 33.8 °F 36% 29.88 in 10.0 mi NW 12.7 mph 20.7 mph N/A   Scattered Clouds
4:55 PM 60.8 °F - 33.8 °F 36% 29.88 in 10.0 mi WNW 20.7 mph 24.2 mph N/A   Mostly Cloudy
5:15 PM 59.0 °F - 32.0 °F 36% 29.88 in 10.0 mi NNW 17.3 mph 20.7 mph N/A   Mostly Cloudy
5:35 PM 60.8 °F - 33.8 °F 36% 29.89 in 10.0 mi NW 15.0 mph 24.2 mph N/A   Scattered Clouds
5:55 PM 60.8 °F - 32.0 °F 34% 29.89 in 10.0 mi NNW 16.1 mph 26.5 mph N/A   Scattered Clouds
6:15 PM 59.0 °F - 32.0 °F 36% 29.90 in 10.0 mi NNW 15.0 mph - N/A   Mostly Cloudy
6:35 PM 59.0 °F - 33.8 °F 39% 29.89 in 10.0 mi NNW 10.4 mph - N/A   Overcast
6:55 PM 57.2 °F - 32.0 °F 38% - 10.0 mi North - - N/A   Mostly Cloudy
7:15 PM 57.2 °F - 32.0 °F 38% - - North - - N/A   Unknown
7:35 PM - - - N/A% - - North - - N/A   Unknown
7:55 PM - - - N/A% - - North - - N/A   Unknown
8:15 PM - - - N/A% - - North - - N/A   Unknown
8:35 PM - - - N/A% - - North - - N/A   Unknown
8:55 PM - - - N/A% - - North - - N/A   Unknown
9:15 PM - - - N/A% - - North - - N/A   Unknown
9:35 PM - - - N/A% - - North - - N/A   Unknown
9:55 PM - - - N/A% - - North - - N/A   Unknown
10:15 PM - - - N/A% - - North - - N/A   Unknown
10:35 PM - - - N/A% - - North - - N/A   Unknown
10:55 PM - - - N/A% - - North - - N/A   Unknown
11:15 PM - - - N/A% - - North - - N/A   Unknown
11:35 PM - - - N/A% - - North - - N/A   Unknown
11:55 PM - - - N/A% - - North - - N/A   Unknown